Temp
71 74 73 71 58 53 49 57 68 69 72 76 82 81 80 81 76 67 80 86 82 78 77 78 79 79 79 79 79 78 78 78 78 78 78 78 78 78 78 78 78 79 79 79 79 79 79 79 78
73 78 72 64 53 46 51 62 66 69 77 82 86 82 78 78 84 79 82 83 83 77 76 77 79 79 79 79 78 78 78 78 78 78 78 78 78 78 78 78 78 79 79 79 79 79 79 78 78
76 77 64 57 50 49 53 65 67 75 81 81 79 86 83 81 84 84 82 83 80 77 77 77 79 79 79 78 78 78 78 78 78 78 78 78 78 77 77 77 78 79 79 79 80 79 79 78 78
75 69 64 53 52 60 64 70 74 76 81 81 83 82 85 91 89 86 82 82 80 76 77 78 78 79 79 78 78 78 78 78 78 78 78 78 78 77 77 77 78 79 79 80 79 79 78 78 78
74 62 52 48 55 64 71 75 75 73 75 79 82 81 80 88 88 84 82 83 79 76 77 77 78 78 79 79 78 77 77 77 77 78 78 78 77 77 77 77 78 78 79 79 79 78 78 77 77
64 66 48 48 59 68 71 74 73 73 76 78 79 79 78 86 84 84 84 83 81 77 76 76 78 78 78 78 78 77 77 77 77 77 77 77 77 77 77 77 77 78 78 78 78 78 77 76 76
60 54 54 52 59 64 71 75 74 73 74 75 83 76 77 82 86 86 85 83 81 79 75 75 75 77 78 78 77 77 77 76 76 76 76 76 77 76 76 76 77 77 77 77 77 77 76 76 75
65 57 50 55 57 59 72 74 74 74 78 86 89 77 75 84 87 86 83 81 79 75 75 72 73 74 74 74 77 77 77 77 76 76 76 76 76 76 76 75 76 77 77 77 77 77 76 75 75
71 53 48 54 60 64 73 68 78 82 79 82 86 86 87 87 86 83 80 76 75 76 72 71 71 71 71 72 75 77 77 77 77 76 76 75 71 72 73 74 75 77 77 77 76 76 76 75 75
62 49 57 67 69 67 72 73 75 77 76 77 81 86 90 89 85 84 80 77 76 75 73 71 71 70 70 77 73 72 74 73 72 72 71 70 68 68 72 73 76 76 76 76 76 76 75 75 69
61 57 64 68 71 73 72 73 78 74 71 76 74 81 85 86 82 85 83 82 80 79 77 74 73 72 73 77 72 71 71 70 70 69 69 68 69 67 70 67 71 69 74 70 73 72 71 69 68
57 65 67 69 72 71 69 75 73 76 76 82 82 84 82 78 82 78 81 84 85 81 79 77 76 74 75 77 73 72 71 69 69 69 68 68 66 65 65 66 66 66 68 67 66 67 68 68 68
57 62 66 69 70 71 73 71 72 74 81 85 86 84 81 81 79 80 82 80 84 79 80 78 75 74 75 76 74 72 71 71 71 69 69 69 68 66 66 67 65 67 66 67 65 66 67 67 68
58 60 61 64 64 66 67 69 73 76 81 82 83 82 81 80 81 77 80 76 77 82 78 79 77 77 77 77 75 75 74 71 70 70 70 70 70 68 66 67 67 67 68 68 68 67 67 67 68
58 53 59 61 62 63 68 63 66 75 79 78 81 83 83 81 82 79 79 78 77 78 82 78 78 77 78 78 75 76 76 75 73 72 71 71 70 69 68 68 68 68 69 68 68 66 65 65 67
51 48 42 57 63 65 64 55 68 73 74 74 77 81 83 82 81 80 80 79 77 77 77 78 84 78 78 78 77 76 75 75 74 73 71 71 71 70 69 69 69 69 68 69 68 67 64 64 65
43 38 42 51 62 62 60 56 65 71 72 72 75 77 80 83 78 78 78 80 78 78 81 81 80 76 77 78 75 73 72 72 73 72 72 71 71 71 71 71 70 68 68 68 68 67 66 64 63
41 41 46 47 56 57 54 55 62 66 68 66 67 70 75 78 81 79 79 79 78 77 78 84 84 80 79 79 73 70 70 70 69 71 71 72 72 72 71 71 69 69 68 66 65 64 64 65 68
50 48 46 51 58 55 54 54 59 63 62 62 63 66 69 71 80 85 80 78 77 73 73 72 76 73 75 70 71 68 73 69 68 70 72 73 73 73 71 71 69 70 69 69 69 66 65 63 64
50 47 46 51 57 54 52 53 59 62 62 62 64 66 67 70 74 79 82 77 74 74 72 71 76 76 77 80 78 72 73 68 70 72 72 73 73 72 72 71 71 70 67 66 66 66 63 63 62
47 45 45 46 53 55 51 48 53 60 61 64 64 65 67 68 71 75 80 81 78 72 70 75 76 77 78 78 69 67 67 67 67 68 68 71 72 72 73 71 71 69 68 67 66 66 65 63 63
41 51 50 49 44 35 50 35 48 53 54 59 63 63 63 66 69 72 77 79 78 75 74 76 78 77 78 75 73 69 69 68 68 69 70 71 71 72 72 72 71 68 68 67 66 67 64 63 62
45 53 50 48 42 39 42 35 45 51 51 56 60 63 66 68 70 71 74 78 81 77 74 76 77 76 77 74 77 74 68 70 67 68 68 69 69 71 72 70 69 68 67 67 68 65 64 63 62
55 49 44 42 38 29 40 37 40 46 50 55 59 61 64 67 70 73 75 77 78 76 72 74 74 75 74 73 73 73 71 68 67 66 66 67 68 68 70 70 69 69 68 68 67 66 68 65 63
46 38 26 25 25 27 41 37 40 49 53 55 54 51 54 57 63 69 72 73 76 68 71 73 71 72 70 72 70 71 72 70 69 67 68 67 67 66 68 69 68 68 68 69 67 68 66 64 62
42 38 26 23 24 30 41 30 39 52 51 52 54 53 55 56 57 59 70 73 76 77 73 74 73 74 71 70 70 71 72 71 69 68 70 71 71 69 69 68 69 69 70 68 67 66 66 64 63
41 34 40 32 31 23 30 38 47 49 49 50 50 53 53 56 57 57 63 73 75 78 75 75 76 76 73 72 72 67 69 67 68 68 70 70 70 70 69 69 68 69 68 69 66 64 64 63 62
43 46 30 29 19 19 28 33 35 41 43 46 48 51 53 57 57 57 62 68 75 77 76 70 75 76 73 71 69 70 68 69 68 69 69 69 68 71 69 68 68 68 69 68 65 63 63 63 62
37 34 38 32 30 24 24 29 41 41 44 43 46 49 50 51 53 58 60 67 68 66 67 68 69 68 65 66 66 67 68 69 69 70 70 69 69 69 69 69 68 67 67 65 63 63 63 63 62
43 37 35 24 28 31 27 30 46 43 44 45 47 48 50 53 55 58 58 59 67 66 66 67 65 66 68 69 69 68 68 69 69 70 69 69 69 70 71 70 68 68 68 65 64 64 64 63 62
MSLP
1010.29 1009.87 1009.88 1010.04 1011.27 1011.70 1010.56 1008.55 1006.67 1005.23 1004.64 1002.79 1002.46 1001.66 1001.05 1001.43 1002.25 1002.96 1001.94 1002.69 1003.51 1004.14 1005.62 1006.60 1007.28 1007.25 1007.32 1007.60 1008.09 1008.65 1009.20 1009.76 1010.14 1010.56 1010.96 1011.11 1011.31 1011.53 1011.71 1012.00 1012.37 1012.62 1012.78 1012.94 1013.13 1013.43 1013.47 1013.59 1013.79
1010.23 1009.73 1010.09 1010.63 1011.29 1011.38 1009.49 1007.13 1006.11 1005.45 1004.39 1002.69 1001.89 1002.29 1000.96 1001.25 1001.03 1001.62 1002.27 1002.80 1003.37 1004.27 1005.22 1006.17 1007.02 1007.19 1007.05 1007.34 1007.92 1008.56 1009.01 1009.43 1009.86 1010.39 1010.82 1011.12 1011.33 1011.57 1011.91 1012.06 1012.41 1012.51 1012.63 1012.81 1013.11 1013.28 1013.60 1013.72 1013.82
1010.18 1009.92 1010.69 1011.04 1010.91 1009.94 1008.53 1006.36 1005.46 1004.67 1003.75 1002.92 1001.94 1000.08 1000.03 1000.23 1000.63 1000.92 1001.20 1002.30 1003.25 1004.52 1004.97 1005.79 1006.74 1007.08 1006.99 1007.12 1007.76 1008.39 1009.00 1009.31 1009.72 1010.16 1010.65 1010.91 1011.27 1011.51 1011.84 1012.02 1012.36 1012.47 1012.55 1012.62 1012.96 1013.23 1013.51 1013.72 1013.79
1010.08 1010.38 1011.07 1010.96 1010.07 1008.36 1007.13 1005.84 1005.30 1004.44 1002.72 1001.94 1000.96 999.98 999.31 998.49 999.18 999.91 1001.22 1002.32 1003.13 1004.33 1004.97 1005.58 1006.31 1006.84 1006.68 1006.80 1007.37 1008.18 1008.94 1009.25 1009.73 1010.08 1010.42 1010.69 1011.11 1011.40 1011.65 1011.92 1012.21 1012.31 1012.35 1012.34 1012.63 1013.05 1013.38 1013.61 1013.69
1010.12 1010.58 1011.34 1010.89 1009.10 1007.52 1006.48 1005.71 1005.40 1004.45 1003.11 1002.11 1001.20 1000.52 999.15 999.18 998.93 999.70 1000.69 1001.43 1002.69 1004.43 1004.87 1005.49 1006.14 1006.47 1006.56 1006.60 1007.35 1007.97 1008.50 1009.00 1009.49 1009.92 1010.24 1010.53 1010.87 1011.09 1011.48 1011.71 1012.04 1012.21 1012.28 1012.38 1012.59 1012.83 1013.12 1013.37 1013.56
1010.39 1010.09 1011.48 1010.70 1008.51 1007.03 1005.93 1005.55 1004.88 1004.03 1002.66 1001.83 1001.07 1000.95 1000.19 999.48 999.60 1000.08 1000.46 1001.14 1002.35 1003.60 1004.74 1005.48 1006.20 1006.52 1006.42 1006.70 1007.13 1007.65 1008.26 1008.86 1009.42 1009.84 1010.05 1010.34 1010.67 1010.93 1011.23 1011.51 1011.80 1012.13 1012.18 1012.36 1012.53 1012.72 1013.00 1013.22 1013.39
1010.25 1010.69 1010.60 1009.94 1008.35 1006.73 1005.48 1005.02 1004.75 1004.08 1002.83 1001.91 1001.16 1000.74 1000.45 1000.10 1000.27 1000.08 1000.82 1001.68 1002.74 1003.72 1004.71 1005.67 1006.26 1006.55 1006.51 1006.73 1006.98 1007.52 1008.02 1008.49 1008.94 1009.44 1009.68 1010.01 1010.42 1010.89 1011.09 1011.36 1011.61 1011.83 1012.07 1012.15 1012.36 1012.66 1012.96 1013.15 1013.23
1009.83 1010.09 1010.19 1009.58 1008.25 1006.30 1005.27 1004.85 1004.42 1003.91 1002.75 1001.55 1000.97 1000.55 1000.53 999.57 1000.53 1001.25 1001.73 1002.57 1003.30 1003.97 1004.54 1005.47 1006.08 1006.34 1006.57 1007.00 1007.00 1007.19 1007.70 1008.35 1008.71 1009.10 1009.32 1009.67 1009.84 1010.41 1010.72 1010.89 1011.37 1011.64 1011.76 1012.00 1012.17 1012.46 1012.81 1013.02 1013.14
1009.22 1010.02 1009.65 1008.97 1007.88 1005.84 1005.10 1004.94 1003.94 1003.23 1002.67 1002.21 1001.23 1000.81 999.78 999.77 1000.98 1001.59 1002.58 1003.50 1004.24 1004.72 1005.10 1005.59 1005.95 1006.32 1006.55 1006.97 1007.13 1007.28 1007.63 1007.98 1008.43 1008.86 1009.10 1009.51 1009.68 1010.14 1010.79 1010.79 1011.18 1011.43 1011.52 1011.75 1012.01 1012.23 1012.57 1012.82 1013.00
1009.35 1009.30 1008.17 1007.71 1007.32 1006.26 1005.19 1004.63 1004.34 1003.60 1002.63 1002.05 1001.88 1000.91 1000.45 1000.43 1001.58 1001.89 1002.40 1003.31 1003.93 1004.65 1005.06 1005.72 1005.89 1006.03 1006.46 1006.69 1007.10 1007.32 1007.49 1007.78 1008.05 1008.37 1008.87 1009.23 1009.51 1009.98 1010.44 1010.67 1010.87 1011.16 1011.22 1011.41 1011.69 1011.99 1012.34 1012.58 1012.83
1008.66 1008.03 1007.92 1007.27 1006.90 1006.64 1005.53 1004.65 1004.32 1003.66 1002.75 1002.21 1002.55 1002.14 1001.53 1001.58 1002.03 1001.28 1002.17 1002.26 1002.59 1003.12 1004.16 1004.77 1005.33 1005.63 1005.82 1006.32 1006.63 1007.08 1007.16 1007.49 1007.77 1007.99 1008.42 1008.88 1009.29 1009.69 1010.09 1010.60 1010.70 1011.10 1010.94 1011.15 1011.30 1011.69 1012.05 1012.34 1012.53
1008.57 1008.21 1007.90 1007.35 1006.90 1006.87 1005.85 1004.23 1003.88 1003.44 1002.44 1001.90 1002.48 1002.07 1002.15 1002.33 1001.96 1002.50 1002.29 1002.45 1002.79 1003.09 1003.11 1003.70 1004.37 1004.93 1005.26 1005.71 1006.19 1006.60 1006.85 1006.93 1007.29 1007.54 1008.04 1008.56 1009.15 1009.61 1009.97 1010.37 1010.60 1010.95 1010.82 1010.89 1011.21 1011.50 1011.75 1012.06 1012.18
1009.05 1008.50 1007.83 1007.10 1006.96 1006.78 1006.18 1004.95 1003.94 1002.88 1001.83 1001.39 1001.52 1001.91 1001.82 1001.97 1001.99 1001.94 1001.96 1002.22 1001.85 1002.90 1003.04 1003.35 1003.72 1004.18 1004.35 1004.87 1005.66 1006.09 1006.26 1006.27 1006.44 1007.01 1007.42 1007.87 1008.53 1008.91 1009.42 1009.81 1010.28 1010.55 1010.64 1010.58 1011.04 1011.36 1011.61 1011.82 1011.84
1009.25 1008.90 1008.33 1007.48 1007.20 1006.62 1006.01 1004.88 1004.44 1001.76 1002.15 1001.45 1000.97 1001.14 1001.43 1001.30 1001.27 1001.37 1001.58 1001.95 1001.90 1001.73 1002.30 1002.80 1003.51 1003.72 1004.22 1004.37 1004.85 1005.25 1005.77 1005.76 1005.93 1006.46 1006.67 1007.08 1007.69 1008.17 1008.56 1009.19 1009.71 1009.92 1010.03 1010.07 1010.40 1010.83 1011.13 1011.35 1011.66
1009.72 1009.45 1008.45 1007.79 1007.23 1006.54 1005.95 1004.68 1003.20 1003.22 1002.39 1001.73 1001.30 1000.11 1000.66 1000.97 1000.71 1000.91 1001.47 1001.51 1001.66 1001.45 1001.65 1002.20 1002.73 1003.24 1003.69 1003.94 1004.25 1004.81 1004.78 1005.30 1005.51 1005.90 1006.12 1006.57 1007.08 1007.32 1007.71 1008.50 1009.03 1009.12 1009.11 1009.39 1009.94 1010.49 1010.89 1011.16 1011.25
1010.32 1009.94 1009.28 1007.97 1007.39 1006.44 1005.81 1003.63 1003.38 1003.11 1002.77 1002.08 1001.75 1001.27 999.60 999.98 1000.53 1000.39 1000.51 1001.65 1001.54 1000.96 1001.38 1001.84 1002.27 1002.50 1003.06 1003.50 1003.83 1004.08 1004.09 1004.67 1004.97 1005.35 1005.48 1006.06 1006.40 1006.63 1007.20 1007.72 1008.22 1008.28 1008.69 1009.08 1009.63 1010.12 1010.66 1010.85 1010.87
1011.03 1010.76 1009.81 1008.75 1007.26 1006.55 1005.83 1004.07 1003.92 1003.47 1003.19 1002.56 1002.00 1001.67 1001.35 999.94 1000.20 1000.11 1000.26 1000.24 1000.83 1001.02 1000.67 1001.28 1001.56 1002.29 1002.61 1002.75 1003.16 1003.43 1003.46 1003.98 1004.33 1004.77 1005.18 1005.40 1005.78 1005.91 1006.59 1006.86 1007.48 1007.79 1008.26 1008.82 1009.05 1009.56 1010.03 1010.47 1010.50
1011.27 1010.56 1009.88 1009.05 1007.98 1006.90 1006.13 1004.73 1004.60 1004.23 1003.87 1003.39 1002.85 1002.22 1001.67 1000.94 999.68 999.90 999.91 999.58 999.59 1000.79 1000.82 1000.39 1000.50 1001.01 1001.55 1001.73 1002.08 1002.75 1003.33 1003.63 1003.82 1004.51 1005.14 1004.48 1005.25 1005.33 1005.67 1006.35 1006.84 1007.48 1007.79 1008.36 1008.79 1009.10 1009.43 1009.81 1009.79
1010.45 1010.02 1009.62 1009.00 1008.25 1007.40 1006.49 1005.03 1004.79 1004.20 1004.04 1003.65 1003.17 1002.89 1002.17 1001.41 1000.51 999.44 999.56 999.44 999.38 999.65 1000.46 1000.87 1000.23 1000.05 1000.87 1001.62 1002.04 1002.66 1003.02 1003.32 1003.56 1003.98 1003.93 1004.06 1004.63 1004.91 1005.20 1005.79 1006.42 1006.97 1007.16 1007.48 1008.11 1008.55 1009.04 1009.56 1009.52
1009.94 1009.52 1009.09 1008.51 1008.07 1007.46 1006.89 1005.19 1004.46 1004.28 1004.05 1003.80 1003.30 1002.68 1002.34 1001.46 1000.46 999.57 999.50 999.04 999.40 999.36 999.61 1000.20 1000.11 999.40 999.79 1000.38 1000.76 1001.43 1001.96 1002.51 1002.63 1002.96 1002.90 1003.54 1003.81 1004.17 1004.75 1005.19 1005.71 1006.27 1006.76 1007.27 1007.78 1008.08 1008.57 1008.99 1009.36
1010.05 1010.05 1009.78 1009.53 1008.35 1007.73 1007.13 1005.20 1004.40 1003.93 1003.80 1003.44 1003.02 1002.59 1002.11 1001.74 1000.85 999.89 998.82 998.66 998.39 998.83 999.22 999.32 999.80 999.43 999.11 999.35 1000.42 1001.40 1001.72 1002.12 1002.54 1002.69 1002.75 1002.84 1003.05 1003.67 1004.18 1004.58 1005.03 1005.61 1006.26 1006.89 1007.36 1007.72 1008.00 1008.73 1009.13
1010.28 1010.06 1009.97 1009.70 1009.46 1008.95 1008.26 1006.19 1004.59 1004.13 1003.82 1003.47 1002.99 1002.60 1002.07 1001.45 1001.00 1000.12 999.20 998.04 998.38 997.99 998.03 998.16 998.76 998.97 998.95 999.10 999.68 999.96 1000.66 1001.20 1001.21 1001.51 1001.87 1002.20 1002.59 1003.30 1003.62 1004.24 1004.69 1005.10 1005.82 1006.34 1006.83 1007.20 1007.53 1008.04 1008.83
1010.31 1010.03 1010.01 1010.03 1009.80 1009.44 1008.49 1008.20 1004.97 1004.67 1003.75 1003.36 1003.06 1002.59 1001.92 1001.71 1000.86 999.93 999.12 998.15 997.09 996.78 996.93 997.10 997.64 998.27 998.21 998.47 998.83 999.31 999.99 1000.16 1000.57 1001.24 1001.76 1002.07 1002.41 1003.02 1003.43 1003.92 1004.59 1005.01 1005.52 1005.88 1006.38 1006.94 1007.24 1007.58 1008.23
1009.88 1010.03 1010.27 1010.36 1009.92 1009.80 1008.79 1008.57 1005.45 1005.33 1004.12 1003.32 1003.02 1002.81 1002.33 1001.35 1000.27 999.36 998.56 997.75 996.98 996.13 995.98 996.24 996.60 997.20 997.45 997.88 998.21 998.78 999.38 1000.04 1000.77 1001.24 1001.72 1002.04 1002.49 1002.98 1003.41 1003.65 1004.51 1004.87 1005.21 1005.66 1006.06 1006.42 1006.74 1007.34 1007.89
1010.11 1010.73 1011.52 1011.56 1011.18 1010.11 1009.20 1008.41 1006.55 1004.67 1004.45 1004.29 1004.42 1004.08 1003.49 1002.55 1001.03 999.50 998.23 997.20 996.35 995.85 995.65 995.54 995.82 996.59 996.85 997.07 997.50 998.07 998.53 999.14 999.83 1000.57 1001.02 1001.73 1002.57 1003.06 1003.39 1003.53 1004.28 1004.70 1004.88 1005.39 1005.76 1006.08 1006.58 1007.20 1007.75
1010.35 1011.01 1012.20 1012.41 1012.25 1011.11 1009.92 1008.18 1006.39 1005.26 1005.22 1004.91 1004.72 1004.43 1003.49 1002.39 1001.32 1000.08 997.67 996.24 995.44 995.19 994.97 994.62 994.80 995.77 996.22 996.55 997.22 997.58 998.15 998.71 999.38 999.79 1000.33 1000.94 1001.70 1002.45 1002.78 1003.35 1003.86 1004.17 1004.69 1005.17 1005.46 1005.93 1006.45 1007.04 1007.55
1010.32 1011.10 1011.67 1012.45 1012.39 1011.98 1010.10 1007.85 1006.32 1005.89 1005.53 1004.99 1004.43 1003.78 1002.81 1001.66 1000.58 999.62 997.68 995.64 994.09 993.73 993.93 993.60 993.73 994.39 995.23 995.94 996.55 997.25 997.75 998.39 998.99 999.13 999.57 1000.38 1001.12 1001.85 1002.49 1002.96 1003.72 1004.01 1004.59 1004.95 1005.30 1005.99 1006.56 1007.03 1007.48
1010.34 1010.94 1011.85 1012.76 1012.78 1012.09 1010.18 1008.69 1007.15 1006.17 1005.91 1005.33 1004.38 1003.29 1001.93 1000.54 999.71 999.02 996.95 994.29 992.70 992.08 992.57 992.62 992.93 993.53 994.30 995.20 995.92 996.57 997.18 997.81 998.26 998.75 999.40 1000.18 1000.83 1001.29 1002.19 1002.84 1003.45 1003.96 1004.56 1004.91 1005.40 1006.13 1006.55 1007.04 1007.39
1010.62 1011.10 1011.55 1012.52 1012.47 1011.75 1010.48 1007.86 1006.50 1006.44 1006.19 1005.63 1004.66 1003.43 1002.43 1000.74 999.49 998.48 996.52 993.93 991.91 991.51 991.97 992.25 993.10 993.80 994.55 994.93 995.54 996.34 996.84 997.38 997.84 998.57 999.06 999.76 1000.33 1001.11 1001.76 1002.49 1003.17 1003.97 1004.46 1004.92 1005.49 1006.04 1006.49 1006.94 1007.30
1010.22 1010.84 1011.44 1012.32 1012.41 1011.74 1010.63 1007.54 1006.31 1006.29 1005.73 1005.71 1004.52 1003.34 1002.18 1000.56 999.44 997.94 996.07 994.43 993.45 992.15 991.64 992.09 992.46 993.12 993.58 994.09 994.85 995.67 996.34 996.81 997.68 998.32 998.82 999.44 999.97 1000.76 1001.44 1002.16 1003.02 1003.78 1004.33 1004.83 1005.36 1005.77 1006.18 1006.70 1007.13
Wind_Speed
6 6 0 4 4 4 5 10 7 14 8 3 9 5 17 8 9 7 2 13 17 21 17 17 19 21 21 21 19 18 17 16 14 13 12 13 13 13 14 13 12 12 11 11 10 8 8 7 6
4 3 4 2 4 1 7 7 14 7 11 15 22 7 3 5 3 9 11 12 22 19 16 16 20 20 22 22 21 19 18 17 16 15 14 13 13 13 13 12 11 11 11 10 9 8 7 7 6
3 2 4 3 4 7 6 3 3 8 15 15 9 9 10 7 4 13 9 18 21 16 16 16 21 20 22 23 21 20 18 18 17 16 15 15 14 13 12 12 10 11 11 10 9 8 7 6 6
1 4 4 2 12 7 6 11 14 15 15 7 7 6 3 10 19 11 19 19 20 16 15 18 22 21 22 23 22 21 19 18 17 17 16 15 15 13 12 12 11 11 12 12 11 9 8 7 6
1 4 1 3 11 8 8 8 8 9 8 13 17 12 9 8 10 23 23 22 23 15 13 15 22 22 22 23 22 21 20 19 18 17 16 15 14 14 13 13 12 12 11 11 11 10 9 7 7
1 4 1 7 13 9 7 6 7 5 7 10 12 14 2 2 16 18 21 20 20 20 14 14 19 20 20 20 21 21 20 19 18 17 16 15 14 14 14 14 13 12 11 11 10 10 10 8 7
4 4 5 4 9 10 7 7 10 6 9 3 8 4 2 5 6 18 16 15 17 16 15 12 12 14 18 19 20 20 19 19 19 17 16 15 15 14 14 14 14 13 12 12 11 10 10 9 8
3 4 3 4 7 11 5 3 5 5 16 5 6 4 5 9 14 10 11 11 12 12 14 12 9 10 10 10 18 19 19 19 18 17 16 16 16 16 15 14 14 14 13 12 11 11 11 10 9
1 2 5 6 7 9 9 4 11 8 6 6 7 6 8 13 10 13 13 9 7 7 7 9 10 8 7 7 11 15 19 18 17 15 16 13 6 8 10 11 14 14 14 13 12 12 11 10 10
5 6 10 6 7 11 16 14 17 15 12 4 6 14 16 6 10 13 14 12 11 11 10 9 10 11 9 8 8 7 9 8 8 8 8 6 6 6 8 11 15 15 15 13 13 13 12 11 4
5 8 4 7 6 9 19 22 17 14 17 12 1 6 9 9 10 17 12 18 20 18 12 15 14 13 13 10 7 5 5 5 6 8 8 6 5 5 5 3 5 5 12 5 9 7 6 5 4
7 9 7 11 14 15 14 22 20 18 20 11 3 4 3 1 5 7 6 11 14 15 19 17 15 14 14 8 8 8 7 7 6 8 9 7 4 5 5 5 5 5 5 5 5 4 5 6 6
7 11 9 10 12 12 12 19 21 22 21 18 14 7 6 6 7 6 11 8 13 9 12 14 13 14 14 12 8 7 8 8 8 7 9 8 7 7 5 6 5 6 4 6 5 5 6 7 8
5 7 9 6 9 6 9 15 15 29 13 20 19 11 7 7 9 2 6 6 7 13 13 14 14 12 10 11 12 10 8 7 6 7 8 12 9 7 7 6 7 6 7 7 7 7 7 8 6
6 7 8 5 4 5 7 16 22 13 11 16 18 21 11 8 9 9 7 8 8 9 14 17 17 13 12 13 11 8 9 7 7 7 9 12 11 10 9 7 7 7 8 8 6 5 4 4 4
6 4 3 4 8 6 7 23 16 10 11 16 13 14 23 9 8 10 9 12 10 7 11 10 10 14 14 12 9 9 8 7 7 7 7 12 12 10 10 8 8 7 7 7 7 6 5 5 5
3 4 4 6 8 7 8 17 4 7 11 17 17 15 14 23 9 10 10 9 11 9 15 13 13 13 14 13 8 7 7 6 6 5 6 10 12 12 11 9 8 7 6 6 7 6 6 4 4
7 6 4 4 6 5 9 18 7 7 11 7 8 10 15 14 23 9 12 9 6 12 10 19 18 18 16 12 7 4 3 4 4 5 7 7 8 13 12 8 7 8 5 5 5 4 5 4 7
7 9 7 5 6 8 13 19 14 8 6 8 8 9 12 14 19 18 11 10 9 4 9 10 15 10 8 3 5 3 6 4 3 6 8 8 10 11 11 7 8 7 8 9 9 5 6 4 4
9 11 12 4 5 8 9 21 17 13 9 8 10 14 12 15 18 19 17 10 10 9 11 8 13 14 13 10 8 4 7 4 4 6 8 10 10 9 10 10 9 9 5 6 6 5 3 2 4
6 8 10 14 15 13 9 18 14 13 7 8 8 9 10 12 16 18 21 17 11 10 11 16 15 15 15 15 5 3 3 2 3 3 3 6 8 10 12 11 9 8 6 6 5 6 7 4 2
4 7 13 14 9 6 4 17 17 11 8 9 11 11 10 12 14 15 20 21 14 13 11 14 17 16 16 14 10 8 7 6 4 5 3 4 8 9 10 10 8 7 5 6 5 5 4 5 4
6 9 13 13 8 7 10 5 14 14 20 18 15 17 18 17 18 17 19 20 21 12 11 14 16 17 16 14 12 8 5 4 3 3 4 5 5 7 9 8 7 6 4 5 7 6 6 3 4
7 5 5 5 3 6 7 6 18 13 14 13 13 13 15 20 22 21 20 20 20 13 9 10 14 16 13 13 12 11 11 8 5 4 4 4 4 4 6 8 7 6 6 6 5 6 7 5 4
1 3 5 6 4 6 2 6 13 11 11 13 13 13 16 19 21 23 21 18 15 10 11 11 12 14 11 12 9 10 11 10 11 7 6 7 4 3 6 7 6 5 5 6 6 6 6 5 4
6 6 5 6 4 11 4 9 8 7 7 8 9 13 15 18 18 23 26 19 21 18 17 17 16 16 12 10 11 11 10 8 7 8 7 8 9 7 8 7 6 6 7 6 6 4 4 6 5
5 4 5 3 1 2 5 7 8 2 6 10 11 14 18 20 20 24 25 21 19 20 20 19 19 19 15 15 12 8 9 8 9 9 9 8 8 7 9 8 7 6 7 7 7 5 5 5 5
6 5 2 2 3 4 5 7 10 5 10 12 14 16 20 21 21 21 20 23 23 18 18 12 15 19 18 14 11 11 11 10 8 9 10 11 9 10 10 8 7 7 8 8 7 5 4 6 4
3 3 1 1 3 3 5 6 7 7 8 11 14 18 19 19 18 20 18 24 10 8 9 11 13 12 9 9 8 9 9 9 9 9 11 11 11 10 10 10 8 8 8 7 6 6 6 6 6
7 5 4 5 2 4 4 11 4 5 8 7 11 14 19 19 20 16 20 20 11 4 8 8 8 9 11 12 11 11 9 9 9 9 11 12 12 10 11 10 10 10 9 8 8 7 6 7 6
Wind_Direction
312 295 246 39 67 68 240 249 247 288 337 250 286 221 170 171 163 208 206 150 136 140 157 162 171 159 151 146 147 147 145 146 145 145 146 141 140 138 136 136 142 145 145 145 148 153 152 146 142
308 320 38 74 107 219 260 246 255 285 272 299 310 270 125 183 171 133 118 157 146 146 155 162 174 165 153 149 149 152 152 153 153 155 156 153 150 148 148 147 157 156 154 154 161 160 158 157 157
277 218 91 135 179 207 237 240 233 282 295 287 289 183 158 177 93 147 120 148 136 147 156 163 172 170 158 151 152 154 157 156 158 161 163 160 160 157 159 160 169 169 169 166 171 170 170 176 173
287 21 12 117 248 252 252 296 298 319 304 280 309 242 113 197 157 156 138 138 134 152 160 165 173 176 163 155 155 155 160 159 163 166 169 166 168 165 166 171 180 186 185 181 180 178 182 189 190
276 82 356 239 256 262 278 287 311 290 285 314 324 310 145 178 129 139 146 149 147 161 161 167 177 177 167 158 157 159 161 163 167 173 174 173 174 171 176 181 192 197 195 193 189 185 188 197 201
259 107 106 237 254 276 280 316 282 276 284 322 346 329 253 179 142 154 152 153 153 158 160 170 179 179 166 162 162 164 163 165 172 178 176 177 179 180 185 189 198 205 201 203 199 193 193 199 205
157 109 221 242 269 289 272 337 295 296 291 317 291 261 260 130 177 148 150 143 151 152 153 166 175 180 169 170 166 166 166 170 175 180 179 180 183 189 191 196 199 205 206 205 203 202 201 203 208
179 118 232 239 256 275 273 319 284 302 308 311 322 304 247 192 154 126 117 125 140 150 156 158 166 173 165 177 174 170 171 175 178 183 181 184 186 194 198 196 204 208 207 209 207 206 207 209 214
351 171 220 232 243 269 314 331 304 284 279 343 323 338 308 117 113 107 118 104 111 139 154 160 161 165 163 172 183 175 177 177 183 187 189 189 183 194 205 199 207 212 209 212 212 210 211 212 220
183 199 208 230 256 294 305 298 297 316 319 330 340 356 21 88 138 149 154 159 161 171 167 172 173 168 161 176 183 176 177 181 185 181 186 186 178 185 193 205 213 217 212 213 216 214 214 217 209
232 241 258 279 280 271 283 279 293 297 297 298 59 334 18 8 329 166 176 171 183 182 171 178 180 179 174 187 172 179 180 181 187 183 182 179 187 191 196 191 210 212 216 204 217 214 210 201 202
262 274 262 262 261 267 272 289 284 284 274 282 259 239 149 123 323 304 210 194 197 181 186 180 182 180 185 182 183 186 190 183 188 194 183 179 191 187 188 192 201 198 209 192 202 196 197 202 210
251 273 277 271 264 263 269 272 282 283 290 294 286 261 216 249 214 242 241 231 192 183 185 188 176 183 183 182 182 189 195 192 193 185 189 185 195 195 183 199 190 201 194 191 199 202 205 213 217
314 310 286 289 293 277 277 280 276 271 290 295 295 283 223 224 267 257 258 211 213 177 182 177 189 185 181 184 182 190 191 195 179 193 195 193 199 192 185 196 203 196 196 198 199 204 207 218 214
300 304 317 273 261 272 278 276 255 280 280 275 284 294 271 231 265 255 156 258 188 187 184 181 184 180 185 190 182 193 186 185 193 199 197 195 199 190 183 194 204 199 198 191 195 205 195 204 207
323 348 350 330 348 283 182 258 272 280 289 285 285 290 294 277 235 270 265 178 234 163 183 183 191 181 180 194 192 189 181 183 198 197 192 201 199 187 189 192 206 197 189 187 189 195 200 208 197
317 253 261 303 247 249 234 273 280 298 273 271 275 270 270 282 255 260 265 259 173 215 188 192 183 181 192 196 188 191 172 182 197 196 198 196 196 190 195 198 200 188 179 190 186 195 188 200 205
248 258 231 264 306 327 300 287 293 310 306 298 307 314 290 257 269 226 260 270 264 193 215 196 194 190 195 193 173 141 172 219 184 204 218 188 197 195 196 197 185 191 177 180 182 174 190 191 217
258 272 295 293 263 275 282 280 288 286 277 292 299 298 294 302 284 264 229 240 249 231 212 239 183 189 160 160 164 165 211 200 200 211 206 209 206 199 191 191 188 193 188 196 192 173 175 211 171
323 312 318 314 297 282 285 282 285 279 266 246 273 287 283 286 291 288 261 225 227 225 194 224 222 182 182 189 194 172 185 186 184 205 210 199 190 184 182 186 192 188 165 180 186 163 136 168 171
341 325 336 322 317 315 295 278 284 288 277 283 278 277 290 280 288 286 284 262 228 219 198 191 213 205 194 192 144 99 75 90 159 194 217 200 179 180 184 185 183 174 164 177 180 173 163 157 189
327 300 303 293 303 286 303 284 290 305 303 305 301 291 282 290 287 289 288 273 237 218 205 197 198 198 200 182 177 173 172 180 197 175 190 191 167 181 177 180 174 159 165 170 174 175 157 135 166
259 301 285 288 267 292 267 264 286 299 290 286 286 286 290 292 291 289 290 283 264 239 198 199 204 200 190 186 189 187 168 202 137 151 192 173 154 165 162 162 160 159 169 175 170 155 152 153 146
251 289 329 290 211 247 269 201 282 278 274 276 288 286 297 295 282 279 278 277 287 251 204 193 189 202 192 185 192 181 187 181 155 162 176 156 142 151 158 153 163 172 166 168 174 169 158 164 148
45 55 328 331 350 245 322 301 252 270 274 294 328 346 326 328 309 286 275 278 288 242 211 192 187 205 202 195 187 192 194 188 186 167 166 146 151 152 176 154 164 181 173 174 161 158 153 161 160
301 169 179 269 282 290 292 247 263 295 44 350 350 333 322 320 317 302 286 263 265 255 218 198 183 203 199 197 204 202 200 193 187 170 165 172 176 175 165 161 163 171 160 155 151 137 132 145 163
284 249 207 231 327 51 241 276 282 356 330 337 326 320 315 314 316 307 303 277 265 254 219 200 194 197 200 202 201 193 189 170 181 165 162 169 163 162 162 153 162 145 142 143 134 134 145 156 160
147 232 307 335 280 268 277 268 261 322 306 316 309 314 310 307 310 307 309 305 269 218 210 197 199 197 200 190 191 193 183 178 161 152 158 165 161 155 156 149 153 136 149 140 133 145 157 153 176
302 299 155 121 209 236 300 253 200 246 274 290 313 321 308 306 313 300 307 309 231 168 165 175 186 186 178 175 172 164 167 169 147 165 167 166 153 155 155 156 141 147 151 147 143 165 164 171 173
208 209 150 122 270 262 220 272 53 235 248 295 304 311 305 303 299 311 324 327 286 217 153 163 160 167 177 169 159 164 157 138 158 167 164 155 153 161 156 146 145 153 161 158 159 163 160 167 174